Time,TemperatureF,DewpointF,PressureIn,WindDirection,WindDirectionDegrees,WindSpeedMPH,WindSpeedGustMPH,Humidity,HourlyPrecipIn,Conditions,Clouds,dailyrainin,SoftwareType,DateUTC
2013-01-31 00:00:00,29.3,25.9,29.42,West,264,1.0,17.0,87,0.00,,---,0.43,VWS V14.01,2013-01-31 05:00:00,
2013-01-31 00:01:00,29.3,25.9,29.43,WNW,303,5.0,17.0,87,0.00,,---,0.43,VWS V14.01,2013-01-31 05:01:00,
2013-01-31 00:03:00,29.3,25.9,29.43,West,262,8.0,19.0,87,0.00,,---,0.00,VWS V14.01,2013-01-31 05:03:00,
2013-01-31 00:08:00,29.3,25.9,29.43,WNW,299,2.0,21.0,87,0.00,,---,0.00,VWS V14.01,2013-01-31 05:08:00,
2013-01-31 00:13:00,29.3,25.9,29.43,West,274,4.0,21.0,87,0.00,,---,0.00,VWS V14.01,2013-01-31 05:13:00,
2013-01-31 00:18:00,29.4,25.5,29.43,NW,304,6.0,21.0,85,0.00,,---,0.00,VWS V14.01,2013-01-31 05:18:00,
2013-01-31 00:23:00,29.4,24.9,29.44,NNE,26,7.0,21.0,83,0.00,,---,0.00,VWS V14.01,2013-01-31 05:23:00,
2013-01-31 00:28:00,29.3,24.5,29.44,West,281,4.0,21.0,82,0.00,,---,0.00,VWS V14.01,2013-01-31 05:28:00,
2013-01-31 00:30:00,27.1,22.6,29.50,SSW,213,8.0,26.0,83,0.00,,---,0.00,VWS V14.01,2013-01-31 05:30:00,
2013-01-31 00:33:00,29.2,23.8,29.45,WNW,284,6.0,16.0,80,0.00,,---,0.00,VWS V14.01,2013-01-31 05:33:00,
2013-01-31 00:38:00,29.1,24.0,29.45,SW,225,11.0,21.0,81,0.00,,---,0.00,VWS V14.01,2013-01-31 05:38:00,
2013-01-31 00:43:00,29.0,23.9,29.46,WSW,245,16.0,21.0,81,0.00,,---,0.00,VWS V14.01,2013-01-31 05:43:00,
2013-01-31 00:48:00,28.9,23.8,29.46,West,270,7.0,21.0,81,0.00,,---,0.00,VWS V14.01,2013-01-31 05:48:00,
2013-01-31 00:53:00,28.8,24.0,29.46,SW,214,13.0,21.0,82,0.00,,---,0.00,VWS V14.01,2013-01-31 05:53:00,
2013-01-31 00:58:00,28.7,23.9,29.46,WSW,246,1.0,21.0,82,0.00,,---,0.00,VWS V14.01,2013-01-31 05:58:00,
2013-01-31 01:00:00,25.9,20.0,29.52,NW,326,4.0,19.0,78,0.00,,---,0.00,VWS V14.01,2013-01-31 06:00:00,
2013-01-31 01:03:00,28.6,24.1,29.47,SW,220,10.0,11.0,83,0.00,,---,0.00,VWS V14.01,2013-01-31 06:03:00,
2013-01-31 01:08:00,28.3,24.7,29.47,SSW,212,3.0,19.0,86,0.00,,---,0.00,VWS V14.01,2013-01-31 06:08:00,
2013-01-31 01:13:00,28.0,24.4,29.48,WSW,248,5.0,21.0,86,0.00,,---,0.00,VWS V14.01,2013-01-31 06:13:00,
2013-01-31 01:18:00,27.8,23.9,29.48,WSW,242,9.0,21.0,85,0.00,,---,0.00,VWS V14.01,2013-01-31 06:18:00,
2013-01-31 01:23:00,27.5,23.3,29.49,SW,221,16.0,22.0,84,0.00,,---,0.00,VWS V14.01,2013-01-31 06:23:00,
2013-01-31 01:28:00,27.2,22.7,29.49,SW,232,3.0,26.0,83,0.00,,---,0.00,VWS V14.01,2013-01-31 06:28:00,
2013-01-31 01:30:00,25.4,20.4,29.54,WNW,287,17.0,18.0,81,0.00,,---,0.00,VWS V14.01,2013-01-31 06:30:00,
2013-01-31 01:33:00,27.1,22.4,29.50,WNW,301,6.0,19.0,82,0.00,,---,0.00,VWS V14.01,2013-01-31 06:33:00,
2013-01-31 01:38:00,27.0,22.5,29.50,WNW,288,8.0,19.0,83,0.00,,---,0.00,VWS V14.01,2013-01-31 06:38:00,
2013-01-31 01:43:00,26.7,22.5,29.51,WNW,285,8.0,19.0,84,0.00,,---,0.00,VWS V14.01,2013-01-31 06:43:00,
2013-01-31 01:48:00,26.6,21.9,29.51,NW,316,3.0,19.0,82,0.00,,---,0.00,VWS V14.01,2013-01-31 06:48:00,
2013-01-31 01:53:00,26.4,21.1,29.51,WNW,290,5.0,19.0,80,0.00,,---,0.00,VWS V14.01,2013-01-31 06:53:00,
2013-01-31 01:58:00,26.0,20.1,29.52,NW,318,8.0,19.0,78,0.00,,---,0.00,VWS V14.01,2013-01-31 06:58:00,
2013-01-31 02:00:00,24.6,18.7,29.56,NW,321,7.0,18.0,78,0.00,,---,0.00,VWS V14.01,2013-01-31 07:00:00,
2013-01-31 02:03:00,25.8,20.2,29.52,SSW,203,1.0,10.0,79,0.00,,---,0.00,VWS V14.01,2013-01-31 07:03:00,
2013-01-31 02:08:00,25.7,20.1,29.53,WNW,294,4.0,11.0,79,0.00,,---,0.00,VWS V14.01,2013-01-31 07:08:00,
2013-01-31 02:14:00,25.6,20.0,29.53,West,276,5.0,14.0,79,0.00,,---,0.00,VWS V14.01,2013-01-31 07:14:00,
2013-01-31 02:19:00,25.5,20.2,29.54,WNW,301,7.0,15.0,80,0.00,,---,0.00,VWS V14.01,2013-01-31 07:19:00,
2013-01-31 02:23:00,25.5,20.2,29.53,NW,321,4.0,15.0,80,0.00,,---,0.00,VWS V14.01,2013-01-31 07:23:00,
2013-01-31 02:29:00,25.5,20.5,29.54,WNW,284,1.0,17.0,81,0.00,,---,0.00,VWS V14.01,2013-01-31 07:29:00,
2013-01-31 02:30:00,23.8,20.0,29.58,SSW,204,3.0,22.0,85,0.00,,---,0.00,VWS V14.01,2013-01-31 07:30:00,
2013-01-31 02:34:00,25.3,20.0,29.54,WNW,290,6.0,17.0,80,0.00,,---,0.00,VWS V14.01,2013-01-31 07:34:00,
2013-01-31 02:39:00,25.1,19.8,29.54,West,281,3.0,17.0,80,0.00,,---,0.00,VWS V14.01,2013-01-31 07:39:00,
2013-01-31 02:44:00,25.0,19.7,29.55,West,278,4.0,17.0,80,0.00,,---,0.00,VWS V14.01,2013-01-31 07:44:00,
2013-01-31 02:49:00,24.8,19.2,29.56,WSW,242,6.0,17.0,79,0.00,,---,0.00,VWS V14.01,2013-01-31 07:49:00,
2013-01-31 02:54:00,24.6,19.0,29.56,West,260,11.0,18.0,79,0.00,,---,0.00,VWS V14.01,2013-01-31 07:54:00,
2013-01-31 02:59:00,24.6,19.0,29.56,WNW,284,6.0,18.0,79,0.00,,---,0.00,VWS V14.01,2013-01-31 07:59:00,
2013-01-31 03:00:00,23.5,18.0,29.59,WSW,255,2.0,18.0,79,0.00,,---,0.00,VWS V14.01,2013-01-31 08:00:00,
2013-01-31 03:04:00,24.5,18.6,29.56,NW,316,10.0,17.0,78,0.00,,---,0.00,VWS V14.01,2013-01-31 08:04:00,
2013-01-31 03:09:00,24.6,19.0,29.57,West,281,1.0,17.0,79,0.00,,---,0.00,VWS V14.01,2013-01-31 08:09:00,
2013-01-31 03:14:00,24.5,18.6,29.57,North,352,7.0,22.0,78,0.00,,---,0.00,VWS V14.01,2013-01-31 08:14:00,
2013-01-31 03:19:00,24.5,18.9,29.57,WSW,238,5.0,22.0,79,0.00,,---,0.00,VWS V14.01,2013-01-31 08:19:00,
2013-01-31 03:24:00,24.4,19.4,29.57,SSW,201,9.0,22.0,81,0.00,,---,0.00,VWS V14.01,2013-01-31 08:24:00,
2013-01-31 03:29:00,24.1,20.0,29.58,WNW,295,4.0,22.0,84,0.00,,---,0.00,VWS V14.01,2013-01-31 08:29:00,
2013-01-31 03:30:00,22.6,16.5,29.60,SW,235,7.0,21.0,77,0.00,,---,0.00,VWS V14.01,2013-01-31 08:30:00,
2013-01-31 03:34:00,23.6,20.0,29.58,SW,214,2.0,10.0,86,0.00,,---,0.00,VWS V14.01,2013-01-31 08:34:00,
2013-01-31 03:39:00,23.5,19.7,29.58,WSW,248,7.0,14.0,85,0.00,,---,0.00,VWS V14.01,2013-01-31 08:39:00,
2013-01-31 03:44:00,23.5,18.8,29.58,NNW,339,8.0,14.0,82,0.00,,---,0.00,VWS V14.01,2013-01-31 08:44:00,
2013-01-31 03:49:00,23.5,18.2,29.58,West,277,4.0,17.0,80,0.00,,---,0.00,VWS V14.01,2013-01-31 08:49:00,
2013-01-31 03:54:00,23.5,18.0,29.59,West,259,5.0,18.0,79,0.00,,---,0.00,VWS V14.01,2013-01-31 08:54:00,
2013-01-31 03:59:00,23.5,18.0,29.59,SW,232,5.0,18.0,79,0.00,,---,0.00,VWS V14.01,2013-01-31 08:59:00,
2013-01-31 04:00:00,22.2,17.5,29.62,West,259,4.0,19.0,82,0.00,,---,0.00,VWS V14.01,2013-01-31 09:00:00,
2013-01-31 04:04:00,23.5,18.5,29.59,West,276,11.0,11.0,81,0.00,,---,0.00,VWS V14.01,2013-01-31 09:04:00,
2013-01-31 04:09:00,23.1,18.4,29.59,WSW,253,18.0,20.0,82,0.00,,---,0.00,VWS V14.01,2013-01-31 09:09:00,
2013-01-31 04:14:00,22.8,18.1,29.60,West,271,4.0,20.0,82,0.00,,---,0.00,VWS V14.01,2013-01-31 09:14:00,
2013-01-31 04:19:00,22.6,17.1,29.60,WSW,245,9.0,20.0,79,0.00,,---,0.00,VWS V14.01,2013-01-31 09:19:00,
2013-01-31 04:24:00,22.6,16.5,29.60,WSW,248,16.0,21.0,77,0.00,,---,0.00,VWS V14.01,2013-01-31 09:24:00,
2013-01-31 04:29:00,22.5,16.1,29.60,West,259,10.0,21.0,76,0.00,,---,0.00,VWS V14.01,2013-01-31 09:29:00,
2013-01-31 04:30:00,21.9,17.3,29.63,WSW,253,8.0,23.0,82,0.00,,---,0.00,VWS V14.01,2013-01-31 09:30:00,
2013-01-31 04:34:00,22.6,16.2,29.61,WSW,254,7.0,14.0,76,0.00,,---,0.00,VWS V14.01,2013-01-31 09:34:00,
2013-01-31 04:39:00,22.6,16.5,29.61,West,274,7.0,14.0,77,0.00,,---,0.00,VWS V14.01,2013-01-31 09:39:00,
2013-01-31 04:44:00,22.5,16.7,29.62,SW,218,6.0,18.0,78,0.00,,---,0.00,VWS V14.01,2013-01-31 09:44:00,
2013-01-31 04:49:00,22.3,16.8,29.61,West,263,3.0,19.0,79,0.00,,---,0.00,VWS V14.01,2013-01-31 09:49:00,
2013-01-31 04:54:00,22.2,17.3,29.62,NNW,327,6.0,19.0,81,0.00,,---,0.00,VWS V14.01,2013-01-31 09:54:00,
2013-01-31 04:59:00,22.1,17.2,29.62,SSW,210,6.0,19.0,81,0.00,,---,0.00,VWS V14.01,2013-01-31 09:59:00,
2013-01-31 05:00:00,21.5,15.7,29.65,SSE,157,3.0,22.0,78,0.00,,---,0.00,VWS V14.01,2013-01-31 10:00:00,
2013-01-31 05:04:00,22.2,17.5,29.62,WNW,285,3.0,8.0,82,0.00,,---,0.00,VWS V14.01,2013-01-31 10:04:00,
2013-01-31 05:09:00,22.2,17.5,29.62,NW,311,14.0,16.0,82,0.00,,---,0.00,VWS V14.01,2013-01-31 10:09:00,
2013-01-31 05:14:00,22.2,16.7,29.62,WNW,292,11.0,23.0,79,0.00,,---,0.00,VWS V14.01,2013-01-31 10:14:00,
2013-01-31 05:19:00,22.2,17.0,29.63,West,280,4.0,23.0,80,0.00,,---,0.00,VWS V14.01,2013-01-31 10:19:00,
2013-01-31 05:24:00,22.1,16.9,29.63,WNW,301,8.0,23.0,80,0.00,,---,0.00,VWS V14.01,2013-01-31 10:24:00,
2013-01-31 05:29:00,22.0,17.1,29.63,SW,236,9.0,23.0,81,0.00,,---,0.00,VWS V14.01,2013-01-31 10:29:00,
2013-01-31 05:30:00,20.3,15.7,29.66,WNW,293,5.0,20.0,82,0.00,,---,0.00,VWS V14.01,2013-01-31 10:30:00,
2013-01-31 05:34:00,21.8,17.2,29.64,WSW,245,5.0,16.0,82,0.00,,---,0.00,VWS V14.01,2013-01-31 10:34:00,
2013-01-31 05:39:00,21.7,16.8,29.64,SSW,194,9.0,16.0,81,0.00,,---,0.00,VWS V14.01,2013-01-31 10:39:00,
2013-01-31 05:44:00,21.7,16.8,29.64,SSE,168,4.0,16.0,81,0.00,,---,0.00,VWS V14.01,2013-01-31 10:44:00,
2013-01-31 05:49:00,21.5,16.3,29.64,West,276,11.0,22.0,80,0.00,,---,0.00,VWS V14.01,2013-01-31 10:49:00,
2013-01-31 05:54:00,21.5,16.3,29.65,WSW,239,9.0,22.0,80,0.00,,---,0.00,VWS V14.01,2013-01-31 10:54:00,
2013-01-31 05:59:00,21.5,15.7,29.65,SW,218,7.0,22.0,78,0.00,,---,0.00,VWS V14.01,2013-01-31 10:59:00,
2013-01-31 06:00:00,19.3,15.0,29.67,West,273,7.0,25.0,83,0.00,,---,0.00,VWS V14.01,2013-01-31 11:00:00,
2013-01-31 06:04:00,21.5,15.7,29.65,WNW,290,3.0,14.0,78,0.00,,---,0.00,VWS V14.01,2013-01-31 11:04:00,
2013-01-31 06:09:00,21.5,15.7,29.65,WSW,242,10.0,15.0,78,0.00,,---,0.00,VWS V14.01,2013-01-31 11:09:00,
2013-01-31 06:14:00,21.4,16.2,29.65,WSW,237,4.0,16.0,80,0.00,,---,0.00,VWS V14.01,2013-01-31 11:14:00,
2013-01-31 06:19:00,21.0,16.1,29.65,NNE,23,2.0,20.0,81,0.00,,---,0.00,VWS V14.01,2013-01-31 11:19:00,
2013-01-31 06:24:00,20.6,15.7,29.65,SW,214,2.0,20.0,81,0.00,,---,0.00,VWS V14.01,2013-01-31 11:24:00,
2013-01-31 06:29:00,20.4,15.8,29.65,SSW,208,8.0,20.0,82,0.00,,---,0.00,VWS V14.01,2013-01-31 11:29:00,
2013-01-31 06:30:00,18.9,13.2,29.70,SW,214,6.0,20.0,78,0.00,,---,0.00,VWS V14.01,2013-01-31 11:30:00,
2013-01-31 06:34:00,20.2,15.9,29.66,WSW,248,2.0,9.0,83,0.00,,---,0.00,VWS V14.01,2013-01-31 11:34:00,
2013-01-31 06:39:00,20.0,15.7,29.66,SW,235,2.0,13.0,83,0.00,,---,0.00,VWS V14.01,2013-01-31 11:39:00,
2013-01-31 06:44:00,19.8,15.8,29.66,SSE,148,4.0,14.0,84,0.00,,---,0.00,VWS V14.01,2013-01-31 11:44:00,
2013-01-31 06:49:00,19.6,15.6,29.67,WSW,250,2.0,14.0,84,0.00,,---,0.00,VWS V14.01,2013-01-31 11:49:00,
2013-01-31 06:55:00,19.5,15.2,29.67,WSW,245,8.0,25.0,83,0.00,,---,0.00,VWS V14.01,2013-01-31 11:55:00,
2013-01-31 07:00:00,19.4,15.1,29.67,SW,236,6.0,25.0,83,0.00,,---,0.00,VWS V14.01,2013-01-31 12:00:00,
2013-01-31 07:05:00,19.3,15.0,29.68,West,274,7.0,15.0,83,0.00,,---,0.00,VWS V14.01,2013-01-31 12:05:00,
2013-01-31 07:10:00,19.2,14.6,29.68,SW,219,5.0,17.0,82,0.00,,---,0.00,VWS V14.01,2013-01-31 12:10:00,
2013-01-31 07:15:00,19.0,14.4,29.69,West,267,2.0,18.0,82,0.00,,---,0.00,VWS V14.01,2013-01-31 12:15:00,
2013-01-31 07:20:00,18.9,14.0,29.69,SW,228,4.0,19.0,81,0.00,,---,0.00,VWS V14.01,2013-01-31 12:20:00,
2013-01-31 07:25:00,18.8,13.7,29.69,SE,138,4.0,19.0,80,0.00,,---,0.00,VWS V14.01,2013-01-31 12:25:00,
2013-01-31 07:30:00,18.9,13.2,29.69,NW,318,8.0,19.0,78,0.00,,---,0.00,VWS V14.01,2013-01-31 12:30:00,
2013-01-31 07:35:00,18.9,13.2,29.70,SW,235,0.0,12.0,78,0.00,,---,0.00,VWS V14.01,2013-01-31 12:35:00,
2013-01-31 07:40:00,18.9,12.6,29.70,SW,233,4.0,15.0,76,0.00,,---,0.00,VWS V14.01,2013-01-31 12:40:00,
2013-01-31 07:45:00,19.0,12.7,29.70,West,260,5.0,15.0,76,0.00,,---,0.00,VWS V14.01,2013-01-31 12:45:00,
2013-01-31 07:50:00,18.8,12.5,29.71,WNW,293,6.0,16.0,76,0.00,,---,0.00,VWS V14.01,2013-01-31 12:50:00,
2013-01-31 07:55:00,18.6,12.9,29.71,West,266,12.0,16.0,78,0.00,,---,0.00,VWS V14.01,2013-01-31 12:55:00,
2013-01-31 08:00:00,18.5,12.5,29.71,SW,234,13.0,16.0,77,0.00,,---,0.00,VWS V14.01,2013-01-31 13:00:00,
2013-01-31 08:05:00,18.5,12.2,29.71,WSW,250,7.0,13.0,76,0.00,,---,0.00,VWS V14.01,2013-01-31 13:05:00,
2013-01-31 08:10:00,18.6,12.3,29.72,WNW,282,7.0,15.0,76,0.00,,---,0.00,VWS V14.01,2013-01-31 13:10:00,
2013-01-31 08:15:00,18.6,11.7,29.72,SW,222,14.0,20.0,74,0.00,,---,0.00,VWS V14.01,2013-01-31 13:15:00,
2013-01-31 08:20:00,18.8,11.9,29.72,WNW,288,13.0,20.0,74,0.00,,---,0.00,VWS V14.01,2013-01-31 13:20:00,
2013-01-31 08:25:00,18.9,12.0,29.72,NW,310,9.0,22.0,74,0.00,,---,0.00,VWS V14.01,2013-01-31 13:25:00,
2013-01-31 08:30:00,17.7,14.2,29.77,SW,231,3.0,14.0,86,0.00,,---,0.00,VWS V14.01,2013-01-31 13:30:00,
2013-01-31 08:31:00,18.9,11.7,29.73,North,359,2.0,22.0,73,0.00,,---,0.00,VWS V14.01,2013-01-31 13:31:00,
2013-01-31 08:36:00,19.0,11.2,29.73,SW,226,10.0,13.0,71,0.00,,---,0.00,VWS V14.01,2013-01-31 13:36:00,
2013-01-31 08:41:00,19.0,10.5,29.74,WNW,298,2.0,18.0,69,0.00,,---,0.00,VWS V14.01,2013-01-31 13:41:00,
2013-01-31 08:46:00,19.1,10.9,29.74,NNW,333,2.0,18.0,70,0.00,,---,0.00,VWS V14.01,2013-01-31 13:46:00,
2013-01-31 08:51:00,19.3,11.1,29.74,WSW,250,4.0,18.0,70,0.00,,---,0.00,VWS V14.01,2013-01-31 13:51:00,
2013-01-31 08:56:00,19.2,12.3,29.74,SSW,193,2.0,18.0,74,0.00,,---,0.00,VWS V14.01,2013-01-31 13:56:00,
2013-01-31 09:00:00,18.6,13.5,29.78,WSW,237,2.0,17.0,80,0.00,,---,0.00,VWS V14.01,2013-01-31 14:00:00,
2013-01-31 09:01:00,18.9,13.2,29.75,SW,219,3.0,18.0,78,0.00,,---,0.00,VWS V14.01,2013-01-31 14:01:00,
2013-01-31 09:06:00,18.8,13.7,29.75,SW,222,2.0,11.0,80,0.00,,---,0.00,VWS V14.01,2013-01-31 14:06:00,
2013-01-31 09:11:00,18.7,14.1,29.75,SSW,211,5.0,13.0,82,0.00,,---,0.00,VWS V14.01,2013-01-31 14:11:00,
2013-01-31 09:16:00,18.5,14.8,29.76,SW,236,9.0,14.0,85,0.00,,---,0.00,VWS V14.01,2013-01-31 14:16:00,
2013-01-31 09:21:00,18.1,14.6,29.76,SSW,192,3.0,14.0,86,0.00,,---,0.00,VWS V14.01,2013-01-31 14:21:00,
2013-01-31 09:26:00,17.9,14.7,29.76,SW,229,7.0,14.0,87,0.00,,---,0.00,VWS V14.01,2013-01-31 14:26:00,
2013-01-31 09:30:00,19.6,13.0,29.79,WNW,286,3.0,15.0,75,0.00,,---,0.00,VWS V14.01,2013-01-31 14:30:00,
2013-01-31 09:31:00,17.7,14.2,29.77,WNW,288,3.0,14.0,86,0.00,,---,0.00,VWS V14.01,2013-01-31 14:31:00,
2013-01-31 09:36:00,17.8,14.1,29.77,SW,226,11.0,13.0,85,0.00,,---,0.00,VWS V14.01,2013-01-31 14:36:00,
2013-01-31 09:41:00,17.9,13.4,29.77,SSW,198,2.0,14.0,82,0.00,,---,0.00,VWS V14.01,2013-01-31 14:41:00,
2013-01-31 09:46:00,18.2,13.6,29.77,West,259,10.0,14.0,82,0.00,,---,0.00,VWS V14.01,2013-01-31 14:46:00,
2013-01-31 09:51:00,18.2,12.8,29.78,WSW,255,9.0,14.0,79,0.00,,---,0.00,VWS V14.01,2013-01-31 14:51:00,
2013-01-31 09:56:00,18.3,12.9,29.78,SW,225,7.0,14.0,79,0.00,,---,0.00,VWS V14.01,2013-01-31 14:56:00,
2013-01-31 10:00:00,20.2,14.2,29.81,West,267,3.0,20.0,77,0.00,,---,0.00,VWS V14.01,2013-01-31 15:00:00,
2013-01-31 10:01:00,18.6,13.2,29.78,WSW,250,5.0,17.0,79,0.00,,---,0.00,VWS V14.01,2013-01-31 15:01:00,
2013-01-31 10:06:00,18.6,13.2,29.78,West,264,12.0,13.0,79,0.00,,---,0.00,VWS V14.01,2013-01-31 15:06:00,
2013-01-31 10:11:00,18.7,12.7,29.79,South,191,3.0,15.0,77,0.00,,---,0.00,VWS V14.01,2013-01-31 15:11:00,
2013-01-31 10:16:00,18.9,13.2,29.79,WSW,243,9.0,15.0,78,0.00,,---,0.00,VWS V14.01,2013-01-31 15:16:00,
2013-01-31 10:21:00,19.2,13.2,29.79,SW,228,5.0,15.0,77,0.00,,---,0.00,VWS V14.01,2013-01-31 15:21:00,
2013-01-31 10:26:00,19.5,13.5,29.79,WNW,293,2.0,15.0,77,0.00,,---,0.00,VWS V14.01,2013-01-31 15:26:00,
2013-01-31 10:30:00,21.0,14.9,29.81,West,278,3.0,17.0,77,0.00,,---,0.00,VWS V14.01,2013-01-31 15:30:00,
2013-01-31 10:31:00,19.6,13.3,29.79,West,265,8.0,15.0,76,0.00,,---,0.00,VWS V14.01,2013-01-31 15:31:00,
2013-01-31 10:36:00,19.7,12.8,29.79,WSW,256,4.0,20.0,74,0.00,,---,0.00,VWS V14.01,2013-01-31 15:36:00,
2013-01-31 10:41:00,20.1,12.9,29.79,NNE,28,2.0,20.0,73,0.00,,---,0.00,VWS V14.01,2013-01-31 15:41:00,
2013-01-31 10:46:00,20.2,12.9,29.80,South,190,5.0,20.0,73,0.00,,---,0.00,VWS V14.01,2013-01-31 15:46:00,
2013-01-31 10:51:00,20.5,13.9,29.80,SW,224,4.0,20.0,75,0.00,,---,0.00,VWS V14.01,2013-01-31 15:51:00,
2013-01-31 10:56:00,20.3,14.0,29.80,SW,236,7.0,20.0,76,0.00,,---,0.00,VWS V14.01,2013-01-31 15:56:00,
2013-01-31 11:00:00,22.3,15.3,29.81,SW,235,8.0,20.0,74,0.00,,---,0.00,VWS V14.01,2013-01-31 16:00:00,
2013-01-31 11:01:00,20.2,14.2,29.81,WNW,297,3.0,20.0,77,0.00,,---,0.00,VWS V14.01,2013-01-31 16:01:00,
2013-01-31 11:06:00,20.2,14.2,29.81,WSW,238,6.0,13.0,77,0.00,,---,0.00,VWS V14.01,2013-01-31 16:06:00,
2013-01-31 11:11:00,20.3,14.3,29.81,WNW,285,4.0,13.0,77,0.00,,---,0.00,VWS V14.01,2013-01-31 16:11:00,
2013-01-31 11:16:00,20.3,14.3,29.81,SW,226,8.0,14.0,77,0.00,,---,0.00,VWS V14.01,2013-01-31 16:16:00,
2013-01-31 11:21:00,20.5,14.7,29.81,NW,304,3.0,15.0,78,0.00,,---,0.00,VWS V14.01,2013-01-31 16:21:00,
2013-01-31 11:26:00,20.8,14.7,29.81,NW,308,0.0,17.0,77,0.00,,---,0.00,VWS V14.01,2013-01-31 16:26:00,
2013-01-31 11:30:00,23.3,15.3,29.80,NNW,332,3.0,17.0,71,0.00,,---,0.00,VWS V14.01,2013-01-31 16:30:00,
2013-01-31 11:31:00,21.0,14.9,29.81,West,266,10.0,17.0,77,0.00,,---,0.00,VWS V14.01,2013-01-31 16:31:00,
2013-01-31 11:36:00,21.1,15.0,29.81,SW,233,7.0,18.0,77,0.00,,---,0.00,VWS V14.01,2013-01-31 16:36:00,
2013-01-31 11:41:00,21.3,15.2,29.81,NNW,338,6.0,18.0,77,0.00,,---,0.00,VWS V14.01,2013-01-31 16:41:00,
2013-01-31 11:46:00,21.5,15.4,29.81,SSW,201,9.0,18.0,77,0.00,,---,0.00,VWS V14.01,2013-01-31 16:46:00,
2013-01-31 11:51:00,21.7,15.0,29.81,NNW,342,2.0,18.0,75,0.00,,---,0.00,VWS V14.01,2013-01-31 16:51:00,
2013-01-31 11:56:00,22.1,15.4,29.81,WSW,251,6.0,20.0,75,0.00,,---,0.00,VWS V14.01,2013-01-31 16:56:00,
2013-01-31 12:00:00,22.7,16.9,29.81,WSW,253,3.0,19.0,78,0.00,,---,0.00,VWS V14.01,2013-01-31 17:00:00,
2013-01-31 12:01:00,22.3,15.3,29.81,SW,225,8.0,20.0,74,0.00,,---,0.00,VWS V14.01,2013-01-31 17:01:00,
2013-01-31 12:07:00,22.4,15.4,29.81,West,278,6.0,16.0,74,0.00,,---,0.00,VWS V14.01,2013-01-31 17:07:00,
2013-01-31 12:12:00,22.5,15.2,29.81,SW,220,5.0,16.0,73,0.00,,---,0.00,VWS V14.01,2013-01-31 17:12:00,
2013-01-31 12:17:00,22.5,15.5,29.81,West,278,10.0,17.0,74,0.00,,---,0.00,VWS V14.01,2013-01-31 17:17:00,
2013-01-31 12:22:00,22.8,16.1,29.80,South,181,5.0,17.0,75,0.00,,---,0.00,VWS V14.01,2013-01-31 17:22:00,
2013-01-31 12:27:00,22.9,15.2,29.81,SSW,197,5.0,17.0,72,0.00,,---,0.00,VWS V14.01,2013-01-31 17:27:00,
2013-01-31 12:30:00,21.7,17.6,29.81,North,360,7.0,13.0,84,0.00,,---,0.00,VWS V14.01,2013-01-31 17:30:00,
2013-01-31 12:32:00,23.2,15.5,29.80,WNW,284,13.0,17.0,72,0.00,,---,0.00,VWS V14.01,2013-01-31 17:32:00,
2013-01-31 12:37:00,23.2,14.6,29.81,WSW,249,8.0,19.0,69,0.00,,---,0.00,VWS V14.01,2013-01-31 17:37:00,
2013-01-31 12:42:00,22.9,14.9,29.80,West,263,8.0,19.0,71,0.00,,---,0.00,VWS V14.01,2013-01-31 17:42:00,
2013-01-31 12:47:00,22.9,14.9,29.81,WSW,242,11.0,19.0,71,0.00,,---,0.00,VWS V14.01,2013-01-31 17:47:00,
2013-01-31 12:52:00,23.1,15.4,29.80,SW,235,6.0,19.0,72,0.00,,---,0.00,VWS V14.01,2013-01-31 17:52:00,
2013-01-31 12:57:00,23.0,15.6,29.81,NW,315,2.0,19.0,73,0.00,,---,0.00,VWS V14.01,2013-01-31 17:57:00,
2013-01-31 13:00:00,22.6,15.3,29.81,SW,222,5.0,15.0,73,0.00,,---,0.00,VWS V14.01,2013-01-31 18:00:00,
2013-01-31 13:02:00,22.8,16.7,29.81,WSW,245,9.0,19.0,77,0.00,,---,0.00,VWS V14.01,2013-01-31 18:02:00,
2013-01-31 13:07:00,22.2,17.0,29.81,NW,311,4.0,13.0,80,0.00,,---,0.00,VWS V14.01,2013-01-31 18:07:00,
2013-01-31 13:12:00,21.9,17.3,29.81,WSW,253,5.0,13.0,82,0.00,,---,0.00,VWS V14.01,2013-01-31 18:12:00,
2013-01-31 13:17:00,21.8,17.2,29.81,WNW,302,3.0,13.0,82,0.00,,---,0.00,VWS V14.01,2013-01-31 18:17:00,
2013-01-31 13:22:00,21.8,17.7,29.81,WNW,301,5.0,13.0,84,0.00,,---,0.00,VWS V14.01,2013-01-31 18:22:00,
2013-01-31 13:27:00,21.9,17.3,29.81,WNW,301,6.0,13.0,82,0.00,,---,0.00,VWS V14.01,2013-01-31 18:27:00,
2013-01-31 13:30:00,20.7,15.8,29.83,NW,326,11.0,18.0,81,0.00,,---,0.00,VWS V14.01,2013-01-31 18:30:00,
2013-01-31 13:32:00,21.7,17.6,29.81,North,360,7.0,13.0,84,0.00,,---,0.00,VWS V14.01,2013-01-31 18:32:00,
2013-01-31 13:37:00,21.8,17.4,29.81,NW,321,3.0,9.0,83,0.00,,---,0.00,VWS V14.01,2013-01-31 18:37:00,
2013-01-31 13:42:00,22.0,17.1,29.81,WNW,283,7.0,11.0,81,0.00,,---,0.00,VWS V14.01,2013-01-31 18:42:00,
2013-01-31 13:47:00,22.0,15.9,29.81,WSW,247,11.0,14.0,77,0.00,,---,0.00,VWS V14.01,2013-01-31 18:47:00,
2013-01-31 13:52:00,21.9,15.5,29.81,SW,214,4.0,14.0,76,0.00,,---,0.00,VWS V14.01,2013-01-31 18:52:00,
2013-01-31 13:57:00,22.1,15.1,29.81,SW,235,4.0,15.0,74,0.00,,---,0.00,VWS V14.01,2013-01-31 18:57:00,
2013-01-31 14:00:00,21.0,14.0,29.84,West,262,6.0,15.0,74,0.00,,---,0.00,VWS V14.01,2013-01-31 19:00:00,
2013-01-31 14:02:00,22.6,15.3,29.81,SW,222,5.0,15.0,73,0.00,,---,0.00,VWS V14.01,2013-01-31 19:02:00,
2013-01-31 14:07:00,22.9,14.9,29.81,SW,217,10.0,14.0,71,0.00,,---,0.00,VWS V14.01,2013-01-31 19:07:00,
2013-01-31 14:12:00,22.7,15.1,29.82,SSW,200,7.0,18.0,72,0.00,,---,0.00,VWS V14.01,2013-01-31 19:12:00,
2013-01-31 14:17:00,22.3,15.3,29.82,WSW,245,2.0,18.0,74,0.00,,---,0.00,VWS V14.01,2013-01-31 19:17:00,
2013-01-31 14:22:00,21.8,16.9,29.82,WNW,287,6.0,18.0,81,0.00,,---,0.00,VWS V14.01,2013-01-31 19:22:00,
2013-01-31 14:27:00,21.1,16.8,29.83,West,277,7.0,18.0,83,0.00,,---,0.00,VWS V14.01,2013-01-31 19:27:00,
2013-01-31 14:30:00,20.6,12.7,29.84,WSW,243,6.0,19.0,71,0.00,,---,0.00,VWS V14.01,2013-01-31 19:30:00,
2013-01-31 14:32:00,20.7,15.8,29.83,WNW,290,9.0,11.0,81,0.00,,---,0.00,VWS V14.01,2013-01-31 19:32:00,
2013-01-31 14:37:00,20.7,15.5,29.83,SW,233,4.0,14.0,80,0.00,,---,0.00,VWS V14.01,2013-01-31 19:37:00,
2013-01-31 14:42:00,20.7,15.5,29.83,NW,305,4.0,14.0,80,0.00,,---,0.00,VWS V14.01,2013-01-31 19:42:00,
2013-01-31 14:47:00,20.7,14.4,29.83,West,259,10.0,15.0,76,0.00,,---,0.00,VWS V14.01,2013-01-31 19:47:00,
2013-01-31 14:52:00,20.7,14.4,29.83,West,277,9.0,15.0,76,0.00,,---,0.00,VWS V14.01,2013-01-31 19:52:00,
2013-01-31 14:57:00,20.6,13.6,29.84,WNW,298,4.0,15.0,74,0.00,,---,0.00,VWS V14.01,2013-01-31 19:57:00,
2013-01-31 15:00:00,20.1,11.9,29.85,West,263,2.0,17.0,70,0.00,,---,0.00,VWS V14.01,2013-01-31 20:00:00,
2013-01-31 15:02:00,21.0,14.0,29.84,WSW,253,8.0,8.0,74,0.00,,---,0.00,VWS V14.01,2013-01-31 20:02:00,
2013-01-31 15:07:00,21.0,14.3,29.84,SSW,197,1.0,18.0,75,0.00,,---,0.00,VWS V14.01,2013-01-31 20:07:00,
2013-01-31 15:12:00,20.8,13.2,29.84,SW,236,3.0,18.0,72,0.00,,---,0.00,VWS V14.01,2013-01-31 20:12:00,
2013-01-31 15:17:00,20.8,12.6,29.84,NW,321,9.0,19.0,70,0.00,,---,0.00,VWS V14.01,2013-01-31 20:17:00,
2013-01-31 15:22:00,20.8,12.9,29.84,WNW,291,4.0,19.0,71,0.00,,---,0.00,VWS V14.01,2013-01-31 20:22:00,
2013-01-31 15:27:00,20.8,13.2,29.84,SSW,193,6.0,19.0,72,0.00,,---,0.00,VWS V14.01,2013-01-31 20:27:00,
2013-01-31 15:30:00,19.3,13.0,29.86,West,270,5.0,17.0,76,0.00,,---,0.00,VWS V14.01,2013-01-31 20:30:00,
2013-01-31 15:32:00,20.6,12.7,29.84,WSW,256,9.0,17.0,71,0.00,,---,0.00,VWS V14.01,2013-01-31 20:32:00,
2013-01-31 15:37:00,20.7,12.8,29.85,West,266,17.0,17.0,71,0.00,,---,0.00,VWS V14.01,2013-01-31 20:37:00,
2013-01-31 15:42:00,20.7,13.1,29.85,West,271,5.0,17.0,72,0.00,,---,0.00,VWS V14.01,2013-01-31 20:42:00,
2013-01-31 15:48:00,20.5,12.3,29.85,NNW,332,3.0,17.0,70,0.00,,---,0.00,VWS V14.01,2013-01-31 20:48:00,
2013-01-31 15:53:00,20.4,11.9,29.85,WSW,237,2.0,17.0,69,0.00,,---,0.00,VWS V14.01,2013-01-31 20:53:00,
2013-01-31 15:58:00,20.2,11.7,29.85,SSW,205,3.0,17.0,69,0.00,,---,0.00,VWS V14.01,2013-01-31 20:58:00,
2013-01-31 16:00:00,18.2,13.6,29.87,WSW,250,4.0,16.0,82,0.00,,---,0.00,VWS V14.01,2013-01-31 21:00:00,
2013-01-31 16:03:00,20.1,11.9,29.85,West,262,3.0,3.0,70,0.00,,---,0.00,VWS V14.01,2013-01-31 21:03:00,
2013-01-31 16:08:00,20.0,12.1,29.85,WNW,283,7.0,17.0,71,0.00,,---,0.00,VWS V14.01,2013-01-31 21:08:00,
2013-01-31 16:13:00,19.9,12.7,29.85,SW,225,5.0,17.0,73,0.00,,---,0.00,VWS V14.01,2013-01-31 21:13:00,
2013-01-31 16:18:00,19.8,13.2,29.85,West,272,3.0,17.0,75,0.00,,---,0.00,VWS V14.01,2013-01-31 21:18:00,
2013-01-31 16:23:00,19.6,13.0,29.86,WSW,248,7.0,17.0,75,0.00,,---,0.00,VWS V14.01,2013-01-31 21:23:00,
2013-01-31 16:28:00,19.6,12.7,29.86,SSW,203,7.0,17.0,74,0.00,,---,0.00,VWS V14.01,2013-01-31 21:28:00,
2013-01-31 16:30:00,16.8,13.1,29.88,WNW,300,7.0,11.0,85,0.00,,---,0.00,VWS V14.01,2013-01-31 21:30:00,
2013-01-31 16:33:00,19.3,13.3,29.86,West,281,8.0,12.0,77,0.00,,---,0.00,VWS V14.01,2013-01-31 21:33:00,
2013-01-31 16:38:00,19.2,12.9,29.86,NW,319,4.0,16.0,76,0.00,,---,0.00,VWS V14.01,2013-01-31 21:38:00,
2013-01-31 16:43:00,18.9,12.6,29.86,SSW,204,4.0,16.0,76,0.00,,---,0.00,VWS V14.01,2013-01-31 21:43:00,
2013-01-31 16:48:00,18.7,13.0,29.86,NW,321,4.0,16.0,78,0.00,,---,0.00,VWS V14.01,2013-01-31 21:48:00,
2013-01-31 16:53:00,18.6,12.6,29.86,SW,217,2.0,16.0,77,0.00,,---,0.00,VWS V14.01,2013-01-31 21:53:00,
2013-01-31 16:58:00,18.3,13.2,29.87,West,269,4.0,16.0,80,0.00,,---,0.00,VWS V14.01,2013-01-31 21:58:00,
2013-01-31 17:00:00,16.2,12.2,29.89,West,274,3.0,11.0,84,0.00,,---,0.00,VWS V14.01,2013-01-31 22:00:00,
2013-01-31 17:03:00,18.2,13.9,29.87,NW,315,3.0,8.0,83,0.00,,---,0.00,VWS V14.01,2013-01-31 22:03:00,
2013-01-31 17:08:00,18.1,14.4,29.87,SW,232,4.0,8.0,85,0.00,,---,0.00,VWS V14.01,2013-01-31 22:08:00,
2013-01-31 17:13:00,17.7,14.2,29.88,West,272,6.0,11.0,86,0.00,,---,0.00,VWS V14.01,2013-01-31 22:13:00,
2013-01-31 17:18:00,17.5,14.0,29.88,SSW,204,6.0,11.0,86,0.00,,---,0.00,VWS V14.01,2013-01-31 22:18:00,
2013-01-31 17:23:00,17.4,13.7,29.88,WNW,294,5.0,11.0,85,0.00,,---,0.00,VWS V14.01,2013-01-31 22:23:00,
2013-01-31 17:28:00,17.0,13.0,29.88,WNW,294,1.0,11.0,84,0.00,,---,0.00,VWS V14.01,2013-01-31 22:28:00,
2013-01-31 17:30:00,15.9,11.7,29.91,WNW,301,5.0,10.0,83,0.00,,---,0.00,VWS V14.01,2013-01-31 22:30:00,
2013-01-31 17:33:00,16.7,13.0,29.89,WNW,284,7.0,8.0,85,0.00,,---,0.00,VWS V14.01,2013-01-31 22:33:00,
2013-01-31 17:38:00,16.4,12.7,29.88,WSW,248,5.0,11.0,85,0.00,,---,0.00,VWS V14.01,2013-01-31 22:38:00,
2013-01-31 17:43:00,16.3,12.3,29.88,WSW,245,8.0,11.0,84,0.00,,---,0.00,VWS V14.01,2013-01-31 22:43:00,
2013-01-31 17:48:00,16.3,12.1,29.89,NW,323,4.0,11.0,83,0.00,,---,0.00,VWS V14.01,2013-01-31 22:48:00,
2013-01-31 17:53:00,16.4,12.1,29.89,NW,308,2.0,11.0,83,0.00,,---,0.00,VWS V14.01,2013-01-31 22:53:00,
2013-01-31 17:58:00,16.4,12.1,29.89,NW,321,5.0,11.0,83,0.00,,---,0.00,VWS V14.01,2013-01-31 22:58:00,
2013-01-31 18:00:00,15.6,9.4,29.93,SW,224,4.0,11.0,76,0.00,,---,0.00,VWS V14.01,2013-01-31 23:00:00,
2013-01-31 18:03:00,16.2,12.5,29.89,WNW,299,2.0,6.0,85,0.00,,---,0.00,VWS V14.01,2013-01-31 23:03:00,
2013-01-31 18:08:00,16.0,12.0,29.90,NW,319,3.0,9.0,84,0.00,,---,0.00,VWS V14.01,2013-01-31 23:08:00,
2013-01-31 18:13:00,16.0,11.8,29.90,NW,314,5.0,9.0,83,0.00,,---,0.00,VWS V14.01,2013-01-31 23:13:00,
2013-01-31 18:18:00,16.0,12.0,29.90,WNW,300,1.0,10.0,84,0.00,,---,0.00,VWS V14.01,2013-01-31 23:18:00,
2013-01-31 18:23:00,16.0,12.0,29.90,WSW,238,1.0,10.0,84,0.00,,---,0.00,VWS V14.01,2013-01-31 23:23:00,
2013-01-31 18:28:00,16.0,11.8,29.91,NW,311,9.0,10.0,83,0.00,,---,0.00,VWS V14.01,2013-01-31 23:28:00,
2013-01-31 18:30:00,15.5,9.0,29.94,NW,317,3.0,10.0,75,0.00,,---,0.00,VWS V14.01,2013-01-31 23:30:00,
2013-01-31 18:33:00,15.9,11.4,29.91,ESE,106,4.0,6.0,82,0.00,,---,0.00,VWS V14.01,2013-01-31 23:33:00,
2013-01-31 18:38:00,15.7,10.9,29.92,West,277,2.0,8.0,81,0.00,,---,0.00,VWS V14.01,2013-01-31 23:38:00,
2013-01-31 18:43:00,15.6,10.3,29.92,WNW,284,2.0,8.0,79,0.00,,---,0.00,VWS V14.01,2013-01-31 23:43:00,
2013-01-31 18:48:00,15.5,9.9,29.92,WNW,303,1.0,8.0,78,0.00,,---,0.00,VWS V14.01,2013-01-31 23:48:00,
2013-01-31 18:53:00,15.5,9.3,29.92,WSW,256,6.0,11.0,76,0.00,,---,0.00,VWS V14.01,2013-01-31 23:53:00,
2013-01-31 18:58:00,15.6,9.4,29.93,NW,321,4.0,11.0,76,0.00,,---,0.00,VWS V14.01,2013-01-31 23:58:00,
2013-01-31 19:00:00,14.9,7.2,29.95,West,274,1.0,12.0,71,0.00,,---,0.00,VWS V14.01,2013-02-01 00:00:00,
2013-01-31 19:03:00,15.6,9.1,29.93,WNW,291,2.0,5.0,75,0.00,,---,0.00,VWS V14.01,2013-02-01 00:03:00,
2013-01-31 19:08:00,15.7,9.2,29.93,West,277,10.0,10.0,75,0.00,,---,0.00,VWS V14.01,2013-02-01 00:08:00,
2013-01-31 19:13:00,15.7,9.2,29.94,NW,311,2.0,10.0,75,0.00,,---,0.00,VWS V14.01,2013-02-01 00:13:00,
2013-01-31 19:18:00,15.7,9.8,29.94,SW,233,1.0,10.0,77,0.00,,---,0.00,VWS V14.01,2013-02-01 00:18:00,
2013-01-31 19:23:00,15.6,9.4,29.94,WSW,247,5.0,10.0,76,0.00,,---,0.00,VWS V14.01,2013-02-01 00:23:00,
2013-01-31 19:28:00,15.5,9.3,29.94,West,264,3.0,10.0,76,0.00,,---,0.00,VWS V14.01,2013-02-01 00:28:00,
2013-01-31 19:30:00,14.8,7.4,29.97,SW,229,1.0,14.0,72,0.00,,---,0.00,VWS V14.01,2013-02-01 00:30:00,
2013-01-31 19:34:00,15.5,9.0,29.94,WNW,295,1.0,3.0,75,0.00,,---,0.00,VWS V14.01,2013-02-01 00:34:00,
2013-01-31 19:39:00,15.5,8.7,29.95,WNW,288,2.0,8.0,74,0.00,,---,0.00,VWS V14.01,2013-02-01 00:39:00,
2013-01-31 19:44:00,15.4,8.6,29.95,WSW,241,10.0,10.0,74,0.00,,---,0.00,VWS V14.01,2013-02-01 00:44:00,
2013-01-31 19:49:00,15.3,7.9,29.95,WNW,285,6.0,12.0,72,0.00,,---,0.00,VWS V14.01,2013-02-01 00:49:00,
2013-01-31 19:54:00,15.2,7.5,29.95,WNW,291,3.0,12.0,71,0.00,,---,0.00,VWS V14.01,2013-02-01 00:54:00,
2013-01-31 19:59:00,15.1,7.4,29.95,West,274,2.0,12.0,71,0.00,,---,0.00,VWS V14.01,2013-02-01 00:59:00,
2013-01-31 20:00:00,14.5,9.2,29.97,SSE,152,2.0,13.0,79,0.00,,---,0.00,VWS V14.01,2013-02-01 01:00:00,
2013-01-31 20:04:00,14.9,6.9,29.95,SW,218,12.0,12.0,70,0.00,,---,0.00,VWS V14.01,2013-02-01 01:04:00,
2013-01-31 20:09:00,14.8,7.1,29.95,WNW,290,1.0,12.0,71,0.00,,---,0.00,VWS V14.01,2013-02-01 01:09:00,
2013-01-31 20:14:00,14.8,7.1,29.96,SW,221,1.0,14.0,71,0.00,,---,0.00,VWS V14.01,2013-02-01 01:14:00,
2013-01-31 20:19:00,14.9,7.2,29.96,NNW,343,3.0,14.0,71,0.00,,---,0.00,VWS V14.01,2013-02-01 01:19:00,
2013-01-31 20:24:00,14.8,7.4,29.96,SSW,198,6.0,14.0,72,0.00,,---,0.00,VWS V14.01,2013-02-01 01:24:00,
2013-01-31 20:29:00,14.8,7.4,29.96,WSW,253,8.0,14.0,72,0.00,,---,0.00,VWS V14.01,2013-02-01 01:29:00,
2013-01-31 20:30:00,13.7,9.0,29.98,West,267,5.0,12.0,81,0.00,,---,0.00,VWS V14.01,2013-02-01 01:30:00,
2013-01-31 20:34:00,14.8,7.7,29.97,WSW,252,3.0,12.0,73,0.00,,---,0.00,VWS V14.01,2013-02-01 01:34:00,
2013-01-31 20:39:00,14.8,8.0,29.97,West,276,1.0,13.0,74,0.00,,---,0.00,VWS V14.01,2013-02-01 01:39:00,
2013-01-31 20:44:00,14.8,8.3,29.97,SW,236,6.0,13.0,75,0.00,,---,0.00,VWS V14.01,2013-02-01 01:44:00,
2013-01-31 20:49:00,14.8,8.6,29.97,WNW,290,2.0,13.0,76,0.00,,---,0.00,VWS V14.01,2013-02-01 01:49:00,
2013-01-31 20:54:00,14.7,8.8,29.97,NW,321,1.0,13.0,77,0.00,,---,0.00,VWS V14.01,2013-02-01 01:54:00,
2013-01-31 20:59:00,14.6,9.0,29.97,WNW,300,4.0,13.0,78,0.00,,---,0.00,VWS V14.01,2013-02-01 01:59:00,
2013-01-31 21:00:00,12.9,8.7,29.99,SW,236,7.0,11.0,83,0.00,,---,0.00,VWS V14.01,2013-02-01 02:00:00,
2013-01-31 21:04:00,14.5,9.2,29.97,WSW,255,7.0,9.0,79,0.00,,---,0.00,VWS V14.01,2013-02-01 02:04:00,
2013-01-31 21:09:00,14.2,9.4,29.97,West,277,6.0,12.0,81,0.00,,---,0.00,VWS V14.01,2013-02-01 02:09:00,
2013-01-31 21:14:00,14.0,9.3,29.97,SW,236,5.0,12.0,81,0.00,,---,0.00,VWS V14.01,2013-02-01 02:14:00,
2013-01-31 21:19:00,13.9,9.2,29.97,SW,219,1.0,12.0,81,0.00,,---,0.00,VWS V14.01,2013-02-01 02:19:00,
2013-01-31 21:24:00,13.9,9.2,29.97,WNW,284,7.0,12.0,81,0.00,,---,0.00,VWS V14.01,2013-02-01 02:24:00,
2013-01-31 21:29:00,13.8,9.1,29.98,SSW,212,1.0,12.0,81,0.00,,---,0.00,VWS V14.01,2013-02-01 02:29:00,
2013-01-31 21:30:00,12.8,6.4,30.00,WSW,242,2.0,11.0,75,0.00,,---,0.00,VWS V14.01,2013-02-01 02:30:00,
2013-01-31 21:34:00,13.6,8.9,29.98,WNW,298,1.0,5.0,81,0.00,,---,0.00,VWS V14.01,2013-02-01 02:34:00,
2013-01-31 21:39:00,13.4,8.7,29.98,WNW,294,0.0,9.0,81,0.00,,---,0.00,VWS V14.01,2013-02-01 02:39:00,
2013-01-31 21:44:00,13.2,8.5,29.98,SW,236,2.0,9.0,81,0.00,,---,0.00,VWS V14.01,2013-02-01 02:44:00,
2013-01-31 21:49:00,13.1,8.4,29.98,West,273,4.0,9.0,81,0.00,,---,0.00,VWS V14.01,2013-02-01 02:49:00,
2013-01-31 21:54:00,12.9,8.4,29.99,WNW,303,2.0,9.0,82,0.00,,---,0.00,VWS V14.01,2013-02-01 02:54:00,
2013-01-31 21:59:00,12.8,8.6,29.99,SW,233,4.0,11.0,83,0.00,,---,0.00,VWS V14.01,2013-02-01 02:59:00,
2013-01-31 22:00:00,12.1,6.3,30.01,West,261,4.0,14.0,77,0.00,,---,0.00,VWS V14.01,2013-02-01 03:00:00,
2013-01-31 22:04:00,12.8,8.4,29.99,West,274,4.0,7.0,82,0.00,,---,0.00,VWS V14.01,2013-02-01 03:04:00,
2013-01-31 22:09:00,12.9,7.9,29.99,NW,316,3.0,8.0,80,0.00,,---,0.00,VWS V14.01,2013-02-01 03:09:00,
2013-01-31 22:14:00,12.9,7.3,29.99,NW,308,3.0,8.0,78,0.00,,---,0.00,VWS V14.01,2013-02-01 03:14:00,
2013-01-31 22:19:00,12.9,7.1,29.99,SW,226,0.0,11.0,77,0.00,,---,0.00,VWS V14.01,2013-02-01 03:19:00,
2013-01-31 22:24:00,12.9,6.5,30.00,WNW,297,5.0,11.0,75,0.00,,---,0.00,VWS V14.01,2013-02-01 03:24:00,
2013-01-31 22:29:00,12.8,6.4,30.00,WSW,246,3.0,11.0,75,0.00,,---,0.00,VWS V14.01,2013-02-01 03:29:00,
2013-01-31 22:30:00,11.5,5.4,30.02,NW,307,1.0,15.0,76,0.00,,---,0.00,VWS V14.01,2013-02-01 03:30:00,
2013-01-31 22:34:00,12.7,6.3,30.00,West,277,5.0,7.0,75,0.00,,---,0.00,VWS V14.01,2013-02-01 03:34:00,
2013-01-31 22:39:00,12.7,6.3,30.00,NW,305,5.0,12.0,75,0.00,,---,0.00,VWS V14.01,2013-02-01 03:39:00,
2013-01-31 22:45:00,12.6,6.2,30.00,West,274,4.0,12.0,75,0.00,,---,0.00,VWS V14.01,2013-02-01 03:45:00,
2013-01-31 22:50:00,12.5,6.4,30.00,WNW,295,8.0,13.0,76,0.00,,---,0.00,VWS V14.01,2013-02-01 03:50:00,
2013-01-31 22:55:00,12.4,6.3,30.00,NW,321,10.0,14.0,76,0.00,,---,0.00,VWS V14.01,2013-02-01 03:55:00,
2013-01-31 23:00:00,12.2,6.4,30.01,WSW,255,5.0,14.0,77,0.00,,---,0.00,VWS V14.01,2013-02-01 04:00:00,
2013-01-31 23:05:00,11.9,5.8,30.01,WSW,242,6.0,12.0,76,0.00,,---,0.00,VWS V14.01,2013-02-01 04:05:00,
2013-01-31 23:10:00,11.8,5.7,30.01,East,92,7.0,15.0,76,0.00,,---,0.00,VWS V14.01,2013-02-01 04:10:00,
2013-01-31 23:15:00,11.7,5.9,30.01,WNW,299,2.0,15.0,77,0.00,,---,0.00,VWS V14.01,2013-02-01 04:15:00,
2013-01-31 23:20:00,11.5,5.7,30.01,SW,232,4.0,15.0,77,0.00,,---,0.00,VWS V14.01,2013-02-01 04:20:00,
2013-01-31 23:25:00,11.5,5.4,30.02,NW,315,6.0,15.0,76,0.00,,---,0.00,VWS V14.01,2013-02-01 04:25:00,
2013-01-31 23:30:00,11.5,5.4,30.02,WNW,291,2.0,15.0,76,0.00,,---,0.00,VWS V14.01,2013-02-01 04:30:00,
2013-01-31 23:35:00,11.4,5.6,30.02,SW,217,1.0,10.0,77,0.00,,---,0.00,VWS V14.01,2013-02-01 04:35:00,
2013-01-31 23:40:00,11.4,5.6,30.02,WSW,238,4.0,13.0,77,0.00,,---,0.00,VWS V14.01,2013-02-01 04:40:00,
2013-01-31 23:45:00,11.3,5.5,30.02,West,273,5.0,13.0,77,0.00,,---,0.00,VWS V14.01,2013-02-01 04:45:00,
2013-01-31 23:50:00,11.3,5.5,30.03,WNW,287,4.0,13.0,77,0.00,,---,0.00,VWS V14.01,2013-02-01 04:50:00,
2013-01-31 23:55:00,11.2,5.4,30.03,WNW,287,0.0,13.0,77,0.00,,---,0.00,VWS V14.01,2013-02-01 04:55:00,